Flag for Switzerland Weather past 2 weeks in Stans, Nidwalden, Switzerland

Now
47 °F

Cool.


Feels Like: 46 °F
Forecast: 35 / 45 °F
Wind: 5 mph from Northeast

Location: Giswil

Current Time: Dec 20, 2014 at 4:11:08 PM

Latest Report: Dec 20, 2014 at 3:00 PM


Visibility: N/A

Pressure: 30.34 "Hg

Humidity: 94%

Dew point: 46 °F

Location of StansLocation

Historic Weather in Stans — Graph

°F

Stans temperature yesterday

Maximum temperature yesterday: 50 °F (at 10:00 PM)
Minimum temperature yesterday: 36 °F (at 10:00 AM)
Average temperature yesterday: 42 °F

Past Weeks' High & Low Weather Summary

 TemperatureHumidityPressure
High50 °F (Dec 19, 10:00 PM)100% (Dec 5, 6:00 PM)30.49 "Hg (Dec 5, 6:00 PM)
Low26 °F (Dec 12, 8:00 AM)48% (Dec 11, 7:00 PM)29.90 "Hg (Dec 12, 9:00 PM)
Average39 °F95%30.16 "Hg
* Reported Dec 5 2:00 PM — Dec 20 2:00 PM, Stans, Weather by CustomWeather, © 2014

Note: Actual official high and low records may vary slightly from our data, if they occured in-between our weather recording intervals... More about our weather records

Advertising

Stans weather history for previous 24 hours

 ConditionsComfort  
Time TempWeatherWind HumidityBarometerVisibility
2:00 PM
Dec 20
49 °FCool.2 mph90%30.29 "HgN/A
1:00 PM48 °FCool.No wind93%30.34 "HgN/A
12:00 PM47 °FCool.1 mph99%30.37 "HgN/A
11:00 AM44 °FQuite cool.1 mph100%30.39 "HgN/A
10:00 AM42 °FQuite cool.2 mph100%30.38 "HgN/A
9:00 AM43 °FQuite cool.3 mph100%30.37 "HgN/A
8:00 AM41 °FQuite cool.3 mph100%30.36 "HgN/A
7:00 AM45 °FQuite cool.1 mph100%30.35 "HgN/A
6:00 AM45 °FCool.2 mph100%30.35 "HgN/A
5:00 AM47 °FCool.3 mph98%30.33 "HgN/A
4:00 AM49 °FCool.2 mph84%30.32 "HgN/A
3:00 AM50 °FCool.8 mph76%30.32 "HgN/A
2:00 AM49 °FCool.7 mph88%30.32 "HgN/A
1:00 AM50 °FCool.13 mph81%30.29 "HgN/A
12:00 AM50 °FCool.12 mph84%30.29 "HgN/A
11:00 PM
Dec 19
48 °FCool.3 mph94%30.29 "HgN/A
10:00 PM50 °FCool.5 mph76%30.27 "HgN/A
9:00 PM43 °FQuite cool.5 mph100%30.26 "HgN/A
8:00 PM40 °FQuite cool.2 mph100%30.23 "HgN/A
7:00 PM41 °FQuite cool.3 mph100%30.22 "HgN/A
6:00 PM37 °FChilly.2 mph100%30.23 "HgN/A
5:00 PM42 °FQuite cool.1 mph100%30.21 "HgN/A
4:00 PM47 °FCool.2 mph100%30.20 "HgN/A
Weather by CustomWeather, © 2014

See weather overviewHow to use our weather pages